Location: Unspecified
(52.4361°N, 0.0000°E)
Time: 16:06:07
(UTC+00:00)

ISS - Visible Passes

Search period start: 26 May 2019 00:00
Search period end: 05 June 2019 00:00
Orbit: 408 x 418 km, 51.6° (Epoch: 27 May)

Date Brightness Start Highest point End Pass type
(mag) Time Alt. Az. Time Alt. Az. Time Alt. Az.
26 May -3.6 22:11:59 10° W 22:15:16 55° SSW 22:17:12 22° SE visible
26 May -1.5 23:49:07 10° W 23:50:01 14° WSW 23:50:01 14° WSW visible
27 May -3.8 21:22:31 10° W 21:25:51 67° SSW 21:29:11 10° ESE visible
27 May -2.5 22:59:23 10° W 23:02:08 25° SSW 23:02:08 25° SSW visible
28 May -2.9 22:09:47 10° W 22:12:52 34° SSW 22:14:15 23° SSE visible
29 May -3.3 21:20:15 10° W 21:23:29 45° SSW 21:26:24 12° SE visible
29 May -1.6 22:57:48 10° WSW 22:59:13 13° SW 22:59:13 13° SW visible
30 May -2.0 22:07:47 10° W 22:10:18 20° SW 22:11:23 17° S visible
31 May -2.5 21:18:03 10° W 21:20:57 27° SSW 21:23:35 12° SSE visible
01 Jun -1.2 22:07:12 10° SW 22:07:32 10° SW 22:07:51 10° SW visible
02 Jun -1.6 21:16:14 10° WSW 21:18:16 15° SW 21:20:17 10° S visible
